Regional Weather Roundup
Issued by NWS Green Bay, WI

Home | Current Version | Previous Version | Text Only | Print | Product List | Glossary On
Versions: 1 2 3 4 5 6 7 8 9 10 11 12 13 14 15 16 17 18 19 20 21 22 23 24 25 26 27 28 29 30 31 32 33 34 35 36 37 38 39 40 41 42 43 44 45 46 47 48 49 50
000
ASUS43 KGRB 280000
RWRGRB

NORTH-CENTRAL AND NORTHEAST WISCONSIN REGIONAL WEATHER ROUNDUP
NATIONAL WEATHER SERVICE GREEN BAY WI
700 PM CDT THU APR 27 2017

WIZ005-009-010>012-018-019-280100-
NORTH CENTRAL WISCONSIN

CITY           SKY/WX    TMP DP  RH WIND       PRES   REMARKS
IRONWOOD       CLOUDY    27  24  89 W16       29.57R
MANITOWISH WTR NOT AVBL
ARBOR VITAE    NOT AVBL
EAGLE RIVER    NOT AVBL
LAND O LAKES   NOT AVBL
RHINELANDER    CLOUDY    30  27  88 W13       29.56R
PHILLIPS       NOT AVBL
ANTIGO         NOT AVBL
TOMAHAWK       NOT AVBL
MERRILL        NOT AVBL
$$

WIZ013-073-280100-
NORTHEAST WISCONSIN

CITY           SKY/WX    TMP DP  RH WIND       PRES   REMARKS
IRON MOUNTAIN  CLOUDY    33  28  81 SW9       29.54R
MARINETTE      CLOUDY    37  32  82 W6        29.61R
$$

WIZ017-030-035>037-045-280100-
CENTRAL WISCONSIN

CITY           SKY/WX    TMP DP  RH WIND       PRES   REMARKS
MEDFORD        NOT AVBL
WAUSAU         CLOUDY    32  29  88 W13       29.60R
MOSINEE        CLOUDY    34  30  86 W9        29.62R
MARSHFIELD     CLOUDY    33  28  81 W13       29.61R
WISC RAPIDS    CLOUDY    37  32  82 W10       29.64R
STEVENS POINT  NOT AVBL
WAUPACA        NOT AVBL
SHAWANO        NOT AVBL
CLINTONVILLE   NOT AVBL
WAUTOMA        LGT RAIN  38  35  89 W10       29.65R
$$

WIZ038-039-048-051-280100-
FOX VALLEY

CITY           SKY/WX    TMP DP  RH WIND       PRES   REMARKS
NWS GREEN BAY  CLOUDY    42  35  76 W14       29.62R
APPLETON       CLOUDY    39  30  70 W15       29.60R
OSHKOSH        CLOUDY    41  34  76 SW5       29.63R
FOND DU LAC    LGT RAIN  41  35  79 SW7       29.65R
$$

WIZ022-050-052-280100-
EAST CENTRAL WISCONSIN

CITY           SKY/WX    TMP DP  RH WIND       PRES   REMARKS
EPHRAIM        NOT AVBL
WASHINGTON ISL NOT AVBL
STURGEON BAY   LGT RAIN  39  33  79 SW8       29.62R
MANITOWOC      NOT AVBL
SHEBOYGAN      LGT RAIN  42  38  85 SW8       29.65R
$$

LMZ563-521-522-541>543-280100-
LAKESHORE

STATION/POSITION TIME  TEMP    WIND        PRES    VSBY  WAVE
                       AIR SEA DIR/SP/G                  HT/PER
                 (UTC) (F)     (DEG/KT/KT) (MB)    (MI)  (FT/S)
SHEBOYGAN LKSHOR 2300   43     240/ 11/ 13 1003.7R
KEWAUNEE LKSHORE 2330   42     260/ 12/ 15 1002.5R
NORTHPORT PIER   2340   37     240/  5/ 10 1002.4R
N MID LAKE BUOY  2250   37 37  240/ 16/ 17 1002.0R         4/ 6
CHAMBERS ISLAND  2340   37     220/  8/ 14 1002.0R
MENOMINEE LKSHOR 2330   38     240/ 12/ 19 1001.5R
$$




USA.gov is the U.S. government's official web portal to all federal, state and local government web resources and services.